Weather Roundup
Issued by NWS Springfield, MO

Home | Current Version | Previous Version | Text Only | Print | Product List | Glossary On
Versions: 1 2 3 4 5 6 7 8 9 10 11 12 13 14 15 16 17 18 19 20 21 22 23 24 25 26 27 28 29 30 31 32 33 34 35 36 37 38 39 40 41 42 43 44 45 46 47 48 49 50
000
NZUS99 KSGF 031607
HRRSGF

HOURLY WEATHER
NATIONAL WEATHER SERVICE SPRINGFIELD MO
1000 AM CST TUE MAR 03 2015

......SGF CWA......

CITY           SKY/WX    TMP DP  RH WIND       PRES   REMARKS
SPRINGFIELD    CLOUDY    44  42  93 SW20      29.83F
JOPLIN         CLOUDY    45  42  89 SW22G29   29.84F
WEST PLAINS    FOG       38  38 100 S6        29.91F VSB 1/4 WCI  33
ROLLA          CLOUDY    42  40  92 SW17G26   29.78S
OSAGE BEACH    CLOUDY    48  43  81 SW10G28   29.79S
BRANSON        CLOUDY    46  46 100 SW9G18    29.90F FOG

......SURROUNDING SGF CWA......

CITY           SKY/WX    TMP DP  RH WIND       PRES   REMARKS
CHANUTE        CLOUDY    43  42  97 SW18G26   29.82S
PARSONS        CLOUDY    42  41  96 SW13      29.85R
COFFEYVILLE    CLOUDY    42  40  92 S13G26    29.87R
EMPORIA        CLOUDY    43  37  79 SW18G24   29.77R
GROVE OK       CLOUDY    45  45 100 S15       29.91F
ROGERS AR      CLOUDY    45  45 100 SW22G28   29.91F FOG
SILOAM SPRINGS CLOUDY    43  37  81 SW16G22   29.95S
HARRISON AR    LGT RAIN  53  51  93 SW12G25   29.92S
NEAR YELLVILLE CLOUDY    43  39  87 CALM      29.93F

......KANSAS AND MISSOURI......

CITY           SKY/WX    TMP DP  RH WIND       PRES   REMARKS
KANSAS CTY INT CLOUDY    42  39  89 SW16G26   29.74R
DOWNTOWN KC    CLOUDY    43  38  82 SW12G22   29.74R
COLUMBIA       CLOUDY    38  37  97 S10       29.76S FOG     WCI  31
SEDALIA        CLOUDY    41  38  89 SW21G33   29.77R FOG
ST JOSEPH      CLOUDY    41  38  89 SW9       29.74R FOG
ST LOUIS       CLOUDY    41  37  86 S7        29.79F FOG
SPIRIT OF STL  CLOUDY    44  40  85 SW9       29.77F
KIRKSVILLE     FOG       34  34 100 SW9       29.73R VSB 1   WCI  27
WICHITA        CLOUDY    41  36  82 SW10      29.80R
TOPEKA         PTSUNNY   46  37  71 SW12G22   29.77R
OLATHE         CLOUDY    41  39  93 SW14G22   29.74R FOG

......TENNESSEE......

CITY           SKY/WX    TMP DP  RH WIND       PRES   REMARKS
MEMPHIS        DRZL/FOG  52  50  93 SW12      30.06F VSB 1/2
NASHVILLE      CLOUDY    56  52  86 S14G21    30.08F

......ARKANSAS.......

CITY           SKY/WX    TMP DP  RH WIND       PRES   REMARKS
FAYETTEVILLE   LGT RAIN  46  46 100 S15G25    29.94F FOG
FT SMITH       LGT RAIN  37  35  92 NE6       30.02R VSB 1/4 WCI  32
LITTLE ROCK    CLOUDY    41  37  86 SW7       30.06F FOG

......OKLAHOMA.......

CITY           SKY/WX    TMP DP  RH WIND       PRES   REMARKS
TULSA          CLOUDY    43  41  93 S15G21    29.91S
PONCA CITY     CLOUDY    44  39  82 SW15G25   29.83F
MCALESTER      FOG       41  40  96 S7        30.00F VSB 3/4
OKLAHOMA CITY  PTSUNNY   48  41  76 S18G24    29.92R

......IOWA............

CITY           SKY/WX    TMP DP  RH WIND       PRES   REMARKS
DES MOINES     DRZL/FOG  34  32  92 W8        29.69S VSB 1   WCI  27
QUAD CITIES    CLOUDY    31  28  89 SW13      29.70F FOG     WCI  21

......ILLINOIS........

CITY           SKY/WX    TMP DP  RH WIND       PRES   REMARKS
QUINCY         FOG       33  32  96 S14       29.73F VSB 1   WCI  23
CHICAGO        FRZ DRZL  30  27  88 S20G28    29.71F FOG     WCI  17



USA.gov is the U.S. government's official web portal to all federal, state and local government web resources and services.